Weather History for Laredo, TX

Change the Weather History Date:

Sunday, December 9, 2012

  Actual Average Record
Temperature  
Mean Temperature 74 °F 58 °F  
Max Temperature 82 °F 69 °F 88 °F (2004)
Min Temperature 65 °F 48 °F 26 °F (1917)
Degree Days  
Heating Degree Days 0 8  
Month to date heating degree days 0 67  
Since 1 July heating degree days 48 182  
Cooling Degree Days 9 1  
Month to date cooling degree days 77 13  
Year to date cooling degree days 5144 4268  
Growing Degree Days 24 (Base 50)    
Moisture  
Dew Point 66 °F    
Average Humidity 77    
Maximum Humidity 93    
Minimum Humidity 56    
Precipitation  
Precipitation 0.00 in 0.03 in 1.29 in (1982)
Month to date precipitation T 0.22  
Year to date precipitation 9.34 19.54  
Sea Level Pressure  
Sea Level Pressure 29.81 in    
Wind  
Wind Speed 8 mph (South)    
Max Wind Speed 15 mph    
Max Gust Speed 21 mph    
Visibility 5 miles    
Events      
T = Trace of Precipitation, MM = Missing Value Source: NWS Daily Summary

Daily Weather History Graph

Daily Weather History Graph

Search for Another Location

Airport:

Trip Planner

Search our weather history database for the weather conditions in past years. The results will help you decide how hot, cold, wet, or windy it might be!

Date:

Astronomy

Dec. 09, 2012 Rise Set
Actual Time 7:17 AM CST 5:43 PM CST
Civil Twilight 6:51 AM CST 6:09 PM CST
Nautical Twilight 6:22 AM CST 6:38 PM CST
Astronomical Twilight 5:53 AM CST 7:06 PM CST
Moon 3:07 AM CST (12/9) 2:38 PM CST (12/9)
Length of Visible Light 11h 17m
Length of Day
10h 26m
Waning Crescent, 18% of the Moon is Illuminated
Dec 9
Waning Crescent
Dec 13
New
Dec 19
First Quarter
Dec 28
Full
Jan 4
Last Quarter

Hourly Weather History & Observations

Time (CST) Temp. Heat Index Dew Point Humidity Pressure Visibility Wind Dir Wind Speed Gust Speed Precip Events Conditions
12:56 AM 71.6 °F - 66.2 °F 83% 29.83 in 6.0 mi SSE 11.5 mph - N/A   Clear
1:56 AM 70.9 °F - 68.0 °F 91% 29.80 in 5.0 mi SSE 11.5 mph - N/A   Scattered Clouds
2:06 AM 71.6 °F - 68.0 °F 88% 29.83 in 5.0 mi SSE 11.5 mph - N/A   Mostly Cloudy
2:56 AM 72.9 °F - 68.0 °F 85% 29.80 in 5.0 mi South 10.4 mph - N/A   Haze
3:56 AM 72.9 °F - 68.9 °F 87% 29.81 in 6.0 mi South 9.2 mph - N/A   Overcast
4:56 AM 72.9 °F - 68.0 °F 85% 29.81 in 5.0 mi South 11.5 mph - N/A   Haze
5:56 AM 72.0 °F - 68.0 °F 87% 29.82 in 5.0 mi South 8.1 mph - N/A   Overcast
6:56 AM 72.0 °F - 68.0 °F 87% 29.83 in 5.0 mi SSE 6.9 mph - N/A   Mostly Cloudy
7:13 AM 71.6 °F - 68.0 °F 88% 29.87 in 4.0 mi SSE 6.9 mph - N/A   Scattered Clouds
7:46 AM 71.6 °F - 68.0 °F 88% 29.87 in 2.5 mi SE 4.6 mph - N/A   Clear
7:56 AM 70.9 °F - 68.0 °F 91% 29.85 in 3.0 mi SE 5.8 mph - N/A   Clear
8:56 AM 72.9 °F - 68.9 °F 87% 29.87 in 3.0 mi SSE 9.2 mph - N/A   Clear
9:56 AM 77.0 °F - 66.9 °F 71% 29.88 in 5.0 mi SSE 12.7 mph - N/A   Haze
10:56 AM 79.0 °F - 66.9 °F 66% 29.86 in 6.0 mi South 15.0 mph - N/A   Haze
11:56 AM 79.9 °F - 66.9 °F 64% 29.84 in 7.0 mi South 9.2 mph - N/A   Clear
12:56 PM 81.0 °F 83.0 °F 65.8 °F 60% 29.80 in 7.0 mi SSW 10.4 mph - N/A   Clear
1:56 PM 81.9 °F 83.9 °F 65.8 °F 58% 29.78 in 7.0 mi South 10.4 mph - N/A   Scattered Clouds
2:56 PM 81.0 °F 82.7 °F 64.9 °F 58% 29.76 in 7.0 mi SSW 9.2 mph - N/A   Scattered Clouds
3:56 PM 81.9 °F 83.5 °F 64.9 °F 56% 29.76 in 7.0 mi South 9.2 mph - N/A   Scattered Clouds
4:56 PM 79.9 °F - 64.9 °F 60% 29.76 in 7.0 mi SSW 6.9 mph - N/A   Clear
5:56 PM 77.9 °F - 64.9 °F 64% 29.76 in 7.0 mi SW 3.5 mph - N/A   Clear
6:56 PM 75.9 °F - 64.9 °F 69% 29.77 in 6.0 mi SSE 3.5 mph - N/A   Haze
7:56 PM 73.9 °F - 63.9 °F 71% 29.79 in 6.0 mi South 4.6 mph - N/A   Haze
8:56 PM 72.0 °F - 63.9 °F 76% 29.80 in 5.0 mi South 5.8 mph - N/A   Haze
9:56 PM 70.0 °F - 63.9 °F 81% 29.80 in 5.0 mi SSW 4.6 mph - N/A   Haze
10:56 PM 66.9 °F - 63.0 °F 87% 29.81 in 5.0 mi Calm Calm - N/A   Clear
11:56 PM 66.9 °F - 63.0 °F 87% 29.80 in 4.0 mi Calm Calm - N/A   Clear